小惑星2013 BN27

2013 BN27

English version
Home page
Updated on April 30, 2013

---------------------------------------------------------------------

・ プロフィール

発見日 2013年1月17日
発見光度 18.6等
発見者 Catalina Sky Survey

・ 軌道要素

The following orbital elements are taken from MPO254839

Epoch 2013 Apr. 18.0 TT = JDT 2456400.5                 MPC
M   0.32700              (2000.0)            P               Q
n   0.00179733     Peri.  300.45272     -0.45077858     -0.44927677
a  66.9963973      Node   128.00751     +0.60262599     +0.48429389
e   0.9766673      Incl.  101.78205     -0.65851393     +0.75073951
P 548              H   17.1           G   0.15
From 56 observations 2013 Jan. 17-Feb. 11, mean residual 0".53.

・ 光度変化

        H = 17.1  G = 0.15

---------------------------------------------------------------------

軌道要素はMPCのEphemerides and Orbital Elementsに掲載されたものです。
光度グラフはComet for Windowsで作成したものです。

---------------------------------------------------------------------

Copyright(C) Seiichi Yoshida (comet@aerith.net). All rights reserved.